User: anonymous   Login
Location: Drummondville
(45.8830°N, 72.4830°W)
Time: 11:46:40
(UTC-04:00)
Language:

BEESAT 3 - Orbit

View from above orbital plane
View from above orbital plane
View from above satellite
View from above satellite

Ground track
Ground track

The orbit data is extracted from the following two-line orbital elements,

1 39134U 13015E   18173.92716508 +.00001235 +00000-0 +67819-4 0  9994
2 39134 064.8638 108.3417 0012334 214.8756 145.1564 15.19193566285396
Epoch (UTC): 22 June 2018 22:15:07
Eccentricity: 0.0012334
inclination: 64.8638°
perigee height: 500 km
apogee height: 517 km
right ascension of ascending node: 108.3417°
argument of perigee: 214.8756°
revolutions per day: 15.19193566
mean anomaly at epoch: 145.1564°
orbit number at epoch: 28539

The dashed part of the orbit path shows where the satellite is in the earth's shadow,  

DLR